Powrót do katalogu

FENGYUN 1C DEB

LostSSO
NORAD 32182·DEBRIS·🇨🇳 China

Wystrzelony May 10, 1999 z Taiyuan Satellite Launch Center

Loading…

Następne Przeloty (najbliższe 24 godziny)

TLE

NieaktualneSource: Space-Track

Epoka: Oct 31, 2022, 13:58 UTC

1 32182U 99025CUC 22304.58216672  .00007929  00000-0  32895-2 0  9995
2 32182  98.2265 235.5562 0119054  70.3209 291.0771 14.22953233801571

Śledź FENGYUN 1C DEB w czasie rzeczywistym z AllMySat

Download on the App Store